Location: Newark
(48.9320°N, 2.2664°E)
Time: 02:27:12
(UTC+00:00)

N. Korean satellite - Visible Passes

Search period start: 27 January 2020 00:00
Search period end: 06 February 2020 00:00
Orbit: 454 x 507 km, 97.2° (Epoch: 26 January)

Date Brightness Start Highest point End Pass type
(mag) Time Alt. Az. Time Alt. Az. Time Alt. Az.
27 Jan 9.3 04:53:24 10° NE 04:56:06 20° E 04:58:48 10° SE visible
27 Jan 7.2 06:26:19 10° N 06:29:35 34° WNW 06:32:52 10° SW visible
28 Jan 10.2 04:29:34 10° ENE 04:30:22 11° E 04:31:08 10° E visible
28 Jan 6.5 06:00:34 10° N 06:04:10 67° WNW 06:07:45 10° SSW visible
29 Jan 7.1 05:35:05 10° NNE 05:38:39 60° E 05:42:15 10° S visible
29 Jan 9.8 17:49:04 10° SW 17:51:13 16° W 17:53:23 10° NW visible
30 Jan 8.6 05:09:50 10° NNE 05:13:04 30° E 05:16:19 10° SSE visible
30 Jan 7.7 06:43:27 10° NNW 06:46:20 23° WNW 06:49:15 10° WSW visible
30 Jan 8.8 17:22:28 10° SSW 17:25:32 29° W 17:28:37 10° NNW visible
31 Jan 9.7 04:45:01 10° NE 04:47:23 16° E 04:49:46 10° SE visible
31 Jan 6.9 06:17:32 10° N 06:20:58 42° WNW 06:24:26 10° SW visible
01 Feb 6.5 05:51:52 10° NNE 05:55:31 85° W 05:59:11 10° SSW visible
01 Feb 10.4 18:07:54 10° W 18:08:14 10° W 18:08:33 10° W visible
02 Feb 7.7 05:26:27 10° NNE 05:29:59 47° E 05:33:33 10° S visible
02 Feb 9.6 17:39:55 10° SW 17:42:27 19° W 17:45:03 10° NW visible
03 Feb 9.0 05:01:18 10° NE 05:04:22 25° E 05:07:26 10° SSE visible
03 Feb 7.5 06:34:35 10° N 06:37:44 28° WNW 06:40:54 10° SW visible
04 Feb 9.9 04:36:45 10° ENE 04:38:39 14° E 04:40:33 10° ESE visible
04 Feb 6.7 06:08:46 10° N 06:12:20 53° WNW 06:15:56 10° SSW visible
05 Feb 6.8 05:43:11 10° NNE 05:46:51 77° E 05:50:33 10° S visible
05 Feb 10.0 17:57:48 10° WSW 17:59:26 13° W 18:01:06 10° WNW visible
